This is the latest recevied weather packets stored in our database for station/object KE8WAY. If no packets are shown the sender has not sent any weather packets the latest 10 day(s).
| Time | Temp. | Humidity | Pressure | Rain* | Wind** | Luminosity | Snow |
|---|---|---|---|---|---|---|---|
| 1778094713 | 12.78° C | 39% | 1011.7 hPa | 0 mm | - | 334 W/m² | - |
| 1778094411 | 12.78° C | 38% | 1011.7 hPa | 0 mm | - | 268 W/m² | - |
| 1778094108 | 12.78° C | 35% | 1011.8 hPa | 0 mm | - | 289 W/m² | - |
| 1778093805 | 13.33° C | 35% | 1011.8 hPa | 0 mm | - | 316 W/m² | - |
| 1778093501 | 13.33° C | 34% | 1011.9 hPa | 0 mm | - | 361 W/m² | - |
| 1778093199 | 13.33° C | 34% | 1011.5 hPa | 0 mm | - | 399 W/m² | - |
| 1778092896 | 13.33° C | 35% | 1011.5 hPa | 0 mm | - | 372 W/m² | - |
| 1778092592 | 13.33° C | 36% | 1011.5 hPa | 0 mm | - | 307 W/m² | - |
| 1778092288 | 13.33° C | 37% | 1011.6 hPa | 0 mm | - | 302 W/m² | - |
| 1778091986 | 13.33° C | 35% | 1011.7 hPa | 0 mm | - | 358 W/m² | - |
| 1778091682 | 13.89° C | 41% | 1011.5 hPa | 0 mm | - | 476 W/m² | - |
| 1778091381 | 13.33° C | 39% | 1011.4 hPa | 0 mm | - | 363 W/m² | - |
| 1778091078 | 13.33° C | 33% | 1011.3 hPa | 0 mm | - | 413 W/m² | - |
| 1778090774 | 13.89° C | 38% | 1011.2 hPa | 0 mm | - | 452 W/m² | - |
| 1778090471 | 13.89° C | 39% | 1011.4 hPa | 0 mm | - | 415 W/m² | - |
| 1778090167 | 13.33° C | 42% | 1011.2 hPa | 0 mm | - | 613 W/m² | - |
| 1778089863 | 13.33° C | 39% | 1011.4 hPa | 0 mm | - | 446 W/m² | - |
| 1778089562 | 13.33° C | 38% | 1011.6 hPa | 0 mm | - | 381 W/m² | - |
| 1778089258 | 13.33° C | 39% | 1011.4 hPa | 0 mm | - | 382 W/m² | - |
| 1778088956 | 13.89° C | 43% | 1011.6 hPa | 0 mm | - | 498 W/m² | - |
| 1778088652 | 13.33° C | 38% | 1011.5 hPa | 0 mm | - | 396 W/m² | - |
| 1778088350 | 13.33° C | 38% | 1011.6 hPa | 0 mm | - | 451 W/m² | - |
| 1778088046 | 13.33° C | 37% | 1012 hPa | 0 mm | - | 510 W/m² | - |
| 1778087743 | 13.33° C | 40% | 1011.6 hPa | 0 mm | - | 384 W/m² | - |
| 1778087441 | 13.33° C | 40% | 1012 hPa | 0 mm | - | 468 W/m² | - |
* Rain latest hour (hover to see other rain measurements)
** Current wind speed in m/s (hover to see current wind gust speed)